Regional Weather Roundup
Issued by NWS

Home | Current Version | Previous Version | Text Only | Print | Product List | Glossary On
Versions: 1 2 3 4 5 6 7 8 9 10 11 12 13 14 15 16 17 18 19 20 21 22 23 24 25 26 27 28 29 30 31 32 33 34 35 36 37 38 39 40 41 42 43 44 45 46 47 48 49 50
000
ASUS44 KFWD 190403
RWRTX
NORTH TEXAS HOURLY WEATHER ROUNDUP
NATIONAL WEATHER SERVICE FORT WORTH TX
1000 PM CST THU DEC 18 2014

NOTE: "FAIR" INDICATES FEW OR NO CLOUDS BELOW 12,000 FEET WITH NO
SIGNIFICANT WEATHER AND/OR OBSTRUCTIONS TO VISIBILITY.

TXZ118-119-190500-
DALLAS/FORT WORTH METROPLEX

CITY           SKY/WX    TMP DP  RH WIND       PRES   REMARKS
DFW AIRPORT    CLOUDY    47  43  86 NE8       30.16S
DALLAS LOVE    CLOUDY    47  44  90 NE7       30.17S
FTW MEACHAM    CLOUDY    48  43  82 N3        30.18R HAZE
DAL-EXECUTIVE  CLOUDY    48  44  86 NE7       30.16F
FTW-ALLIANCE   CLOUDY    45  43  93 N5        30.18R
ARLINGTON      CLOUDY    49  42  77 NE5       30.17S
GRAND PRAIRIE  CLOUDY    47  44  89 NE5       30.18R
ADDISON        CLOUDY    47  47 100 NE7       30.19S
MESQUITE       CLOUDY    46  44  93 N6        30.17F
LANCASTER      CLOUDY    46  43  90 NE6       30.17F FOG
$$

TXZ091>094-102>105-117-120-121-131>134-190500-
NORTH CENTRAL TEXAS

CITY           SKY/WX    TMP DP  RH WIND       PRES   REMARKS
SHRMAN/DENISON CLOUDY    44  44 100 NE5       30.20S FOG
BRIDGEPORT     CLOUDY    47  47 100 E3        30.20R
DECATUR        CLOUDY    44  44  98 E7        30.18R FOG
DENTON         CLOUDY    45  43  93 NE9       30.17F
MCKINNEY       CLOUDY    45  44  97 NE6       30.19S
ROCKWALL       CLOUDY    46  45  97 NE7       30.16S
TERRELL        CLOUDY    48  44  86 N13       30.16F
WAXAHACHIE     CLOUDY    46  46 100 N3        30.17S
CLEBURNE       CLOUDY    46  46 100 NW3       30.19R
GRANBURY       CLOUDY    50  45  82 CALM      30.19S
$$

TXZ083>090-098>101-113>116-127>130-139>142-154-155-190500-
WESTERN NORTH TEXAS

CITY           SKY/WX    TMP DP  RH WIND       PRES   REMARKS
WICHITA FALLS  CLOUDY    43  41  93 NE10      30.18R WCI  37
WF-KICKAPOO    CLOUDY    44  44  99 N6        30.19S
VERNON         CLOUDY    45  37  76 NE6       30.19R
ABILENE        MOCLDY    44  39  82 NE3       30.16R
BRECKENRIDGE   CLOUDY    48  43  84 NE7       30.16S
MINERAL WELLS  CLOUDY    48  44  86 E5        30.16S
STEPHENVILLE   CLOUDY    47  43  87 NE7       30.16F
COMANCHE       CLOUDY    49  48  97 NE9       30.15R
COLEMAN        CLOUDY    49  46  87 NE12      30.13R
$$

TXZ143>147-156>162-174-175-190500-
CENTRAL TEXAS

CITY           SKY/WX    TMP DP  RH WIND       PRES   REMARKS
WACO           CLOUDY    48  46  93 N9        30.15R
WACO-TSTC      CLOUDY    48  46  93 N8        30.15S
WACO-MCGREGOR  CLOUDY    48  43  81 N10       30.16R
CORSICANA      CLOUDY    49  46  90 NE6       30.16R FOG
MEXIA          CLOUDY    48  48  97 N6        30.13S FOG
HEARNE         CLOUDY    51  51  97 N6        30.11F FOG
TEMPLE         CLOUDY    48  43  81 N10       30.13R
KILLEEN        CLOUDY    48  46  93 NE14      30.13S
KILLEEN-SKYLRK CLOUDY    48  41  76 N12       30.11S
FORT HOOD      CLOUDY    48  46  92 NE10      30.13R
GATESVILLE     CLOUDY    48  46  93 NE7       30.17S
HAMILTON       CLOUDY    48  48  99 NE9       30.15S
LAMPASAS       CLOUDY    50  48  93 NE7       30.12R
$$

TXZ095>097-106>112-122>126-135>138-148>153-164>167-190500-
EAST TEXAS

CITY           SKY/WX    TMP DP  RH WIND       PRES   REMARKS
PARIS          CLOUDY    45  43  93 E6        30.20S
SULPHUR SPRNGS CLOUDY    46  45  95 NE5       30.20F FOG
MOUNT PLEASANT CLOUDY    47  46  95 NE3       30.20F
MINEOLA        CLOUDY    46  46 100 CALM      30.17F FOG
TYLER          CLOUDY    49  45  86 NE8       30.14F
LONGVIEW       CLOUDY    49  46  90 NE7       30.16S FOG
MARSHALL       CLOUDY    51  48  90 N3        30.19R
PALESTINE      CLOUDY    51  49  94 N7        30.14S FOG
JACKSONVILLE   CLOUDY    50  49  97 NE9       30.14F FOG
HENDERSON      CLOUDY    49  48  97 NE6       30.16S
NACOGDOCHES    CLOUDY    52  46  82 CALM      30.15R
LUFKIN         CLOUDY    56  49  77 NE7       30.12R
$$

SUPPLEMENTAL OBSERVATIONS (CENTRAL)

CITY           SKY/WX    TMP DP  RH WIND       PRES   REMARKS
$$

SUPPLEMENTAL OBSERVATIONS (WEST)

CITY           SKY/WX    TMP DP  RH WIND       PRES   REMARKS
$$

SUPPLEMENTAL OBSERVATIONS (EAST)

CITY           SKY/WX    TMP DP  RH WIND       PRES   REMARKS
$$

SUPPLEMENTAL OBSERVATIONS ARE A COLLECTION OF AUTOMATED INSTRUMENTS
THAT ARE MAINTAINED BY A VARIETY OF FEDERAL AND STATE AGENCIES.
CERTAIN ELEMENTS...SUCH AS HUMIDITY VALUES AND SUSTAINED WIND
SPEEDS...MAY BE APPROXIMATED.




USA.gov is the U.S. government's official web portal to all federal, state and local government web resources and services.